Content
SEND FEEDBACK

Daily
Averages
Monthly
Summary
Indonesia

HASANUDIN, INDONESIA


Home > Asia > Indonesia
Elevation: 46 feet     Latitude: 05 04S     Longitude: 119 33E

WEATHER
 
SELECT A DAY
Number of Records: 196,432;   Date Range: 9/17/97 - 8/10/14
 
SHARE

PRINT THIS DATA

[ ← Previous Day ]
WEATHER ALMANAC - MAY 7, 2013
[ Next Day → ]
[ °C ]   °F
Weather ElementAverageHighLow
Temperature83.6 °F91.4 °F (11:00 am)77 °F (2:30 am)
Dewpoint79.4 °F84.2 °F (7:30 pm)75 °F (11:00 am)
Humidity87.9 %100 % (12:30 am)51 % (11:00 am)
Barometer29.17 in29.78 in (11:00 pm) (7:00 pm)
Wind Speed3.6 mph10.4 mph (12:30 pm)
Weather ElementAverage
Visibility5.4 mi
Wind DirectionESE (100.2 °)

Weather ElementTotal
Precipitation---
Cooling Degree Days19.2 (Base 65)
Growing Degree Days34.2 (Base 50)
Averaged from 53 records on May 7, 2013
WEATHER CONDITIONS BREAKOUT
WIND DIRECTION BREAKOUT
WEATHER BY HOUR - MAY 7, 2013
[ °C ]   °F
Local TimeTemperatureDewpointHumidityBarometerVisibilityWind DirectionWind SpeedGust SpeedPrecipitationEventsConditions
12:30 AM78.8 °F78.8 °F100 %29.74 in5.0 miVariable2.3 mphPartly Cloudy
1:00 AM78.8 °F78.8 °F100 %29.74 in5.0 miSE (130°)2.3 mphPartly Cloudy
1:30 AM78.8 °F78.8 °F100 %29.74 in5.0 miNE (40°)2.3 mphPartly Cloudy
2:00 AM78.0 °F78.0 °F100 %29.73 in5.0 miSSE (160°)3.5 mphScattered Clouds
2:00 AM78.8 °F78.8 °F100 %29.71 in5.0 miSSE (160°)3.5 mphPartly Cloudy
2:30 AM77.0 °F77.0 °F100 %29.74 in5.0 miESE (120°)3.5 mphPartly Cloudy
3:00 AM77.0 °F77.0 °F100 %29.71 in5.0 miVariable2.3 mphPartly Cloudy
3:30 AM77.0 °F77.0 °F100 %29.74 in5.0 miVariable2.3 mphPartly Cloudy
4:00 AM77.0 °F77.0 °F100 %29.74 in5.0 miESE (120°)3.5 mphPartly Cloudy
4:30 AM77.0 °F77.0 °F100 %29.71 in5.0 miENE (60°)3.5 mphPartly Cloudy
5:00 AM78.0 °F78.0 °F98 %29.71 in5.0 miENE (60°)1.2 mphScattered Clouds
5:00 AM77.0 °F77.0 °F100 %29.71 in5.0 miVariable1.2 mphPartly Cloudy
5:30 AM78.8 °F78.8 °F100 %29.71 in5.0 miVariable2.3 mphPartly Cloudy
6:00 AM77.0 °F77.0 °F100 %29.71 in5.0 miSSE (150°)2.3 mphPartly Cloudy
6:30 AM77.0 °F77.0 °F100 %29.74 in5.6 miSSW (200°)3.5 mphPartly Cloudy
7:00 AM78.8 °F78.8 °F100 %29.74 in6.2 miVariable2.3 mphPartly Cloudy
7:30 AM80.6 °F80.6 °F100 %29.77 in6.2 miVariable2.3 mphPartly Cloudy
8:00 AM82.0 °F81.0 °F94 %29.77 in6.0 miSouth (170°)2.3 mphScattered Clouds
8:00 AM82.4 °F80.6 °F94 %29.77 in6.2 miVariable2.3 mphPartly Cloudy
8:30 AM86.0 °F78.8 °F79 %29.77 in6.2 miVariable2.3 mphPartly Cloudy
9:00 AM86.0 °F78.8 °F79 %29.77 in6.2 miSSE (160°)3.5 mphPartly Cloudy
9:30 AM86.0 °F78.8 °F79 %29.77 in6.2 miSouth (190°)3.5 mphPartly Cloudy
10:00 AM89.6 °F78.8 °F70 %29.77 in6.2 miVariable3.5 mphPartly Cloudy
10:30 AM89.6 °F75.2 °F62 %29.77 in6.2 miVariable3.5 mphPartly Cloudy
11:00 AM91.0 °F75.0 °F51 %29.76 in6.0 miENE (60°)3.5 mphScattered Clouds
11:00 AM91.4 °F75.2 °F59 %29.74 in6.2 miVariable3.5 mphPartly Cloudy
11:30 AM91.4 °F78.8 °F66 %29.74 in6.2 miVariable8.1 mphPartly Cloudy
12:00 PM89.6 °F77.0 °F66 %29.74 in6.2 miSW (230°)5.8 mphScattered Clouds
12:30 PM89.6 °F78.8 °F70 %29.71 in6.2 miWNW (300°)10.4 mphPartly Cloudy
1:00 PM91.4 °F78.8 °F66 %29.71 in5.6 miWest (280°)10.4 mphScattered Clouds
1:30 PM89.6 °F82.4 °F79 %29.71 in5.0 miWNW (300°)9.2 mphScattered Clouds
1:34 PM87.8 °F82.4 °F84 %4.3 miWest (280°)8.1 mphRainLight Rain
2:00 PM87.8 °F80.6 °F79 %29.68 in5.6 miWest (270°)4.6 mphScattered Clouds
2:00 PM88.0 °F81.0 °F73 %29.70 in6.0 miWest (270°)4.6 mphRainLight Rain
2:30 PM89.6 °F78.8 °F70 %29.68 in5.6 miVariable3.5 mphScattered Clouds
3:00 PM89.6 °F78.8 °F70 %29.65 in6.2 miWest (260°)5.8 mphPartly Cloudy
3:30 PM89.6 °F78.8 °F70 %29.65 in6.2 miVariable8.1 mphPartly Cloudy
5:00 PM88.0 °F80.0 °F71 %29.69 in6.0 miWSW (250°)5.8 mphScattered Clouds
5:30 PM87.8 °F78.8 °F75 %29.68 in5.6 miSW (230°)3.5 mphPartly Cloudy
6:00 PM86.0 °F80.6 °F84 %29.68 in5.0 miVariable4.6 mphPartly Cloudy
6:30 PM86.0 °F80.6 °F84 %29.71 in5.0 miVariable2.3 mphPartly Cloudy
7:00 PM86.0 °F82.4 °F89 %29.71 in5.0 miVariable1.2 mphPartly Cloudy
7:30 PM84.2 °F84.2 °F100 %29.71 in5.0 miEast (90°)2.3 mphPartly Cloudy
8:00 PM82.0 °F82.0 °F100 %29.74 in5.0 miESE (120°)2.3 mphScattered Clouds
8:00 PM84.2 °F84.2 °F100 %29.71 in5.0 miESE (120°)2.3 mphPartly Cloudy
8:30 PM82.4 °F82.4 °F100 %29.74 in5.0 miVariable2.3 mphPartly Cloudy
9:00 PM82.4 °F82.4 °F100 %29.74 in5.0 miSE (130°)2.3 mphPartly Cloudy
9:30 PM82.4 °F82.4 °F100 %29.74 in5.0 miVariable2.3 mphPartly Cloudy
10:00 PM82.4 °F82.4 °F100 %29.74 in5.0 miVariable1.2 mphPartly Cloudy
10:30 PM80.6 °F80.6 °F100 %29.77 in5.0 miEast (100°)2.3 mphPartly Cloudy
11:00 PM81.0 °F81.0 °F98 %29.78 in5.0 miEast (80°)1.2 mphScattered Clouds
11:00 PM80.6 °F80.6 °F100 %29.77 in5.0 miEast (80°)1.2 mphPartly Cloudy
11:30 PM80.6 °F80.6 °F100 %29.77 in5.0 miSE (140°)2.3 mphPartly Cloudy
Hourly data recorded from WAAA, located miles away from Hasanudin, Indonesia







STORIES FROM OUR PARTNERS